VK1ET-13 Weather Reports


time (UTC)temp
F
wind
direction
speed
knots
gust
knots
rain 1hr
in
rain 24hr
in
rain mn
in
humidity
%
barometer
mb
20260509135526 48 146 1.7 3.5 0.00 0.00 0.00 95 1025.8
20260509134536 49 162 1.7 3.5 0.00 0.00 0.00 95 1025.8
20260509133525 49 166 1.7 3.5 0.00 0.00 0.00 95 1025.8
20260509132535 49 169 1.7 3.5 0.00 0.00 0.00 94 1025.8
20260509131523 50 75 1.7 3.5 0.00 0.00 0.00 94 1025.9
20260509130533 51 186 1.7 3.5 0.00 0.00 0.00 93 1026.1
20260509125522 51 164 1.7 3.5 0.00 0.00 0.00 93 1026.1
20260509124532 51 162 2.6 4.3 0.00 0.00 0.00 92 1026.0
20260509123521 52 116 0.9 3.5 0.00 0.00 0.00 91 1026.0
20260509122537 52 0.0 0.0 0.00 0.00 0.00 91 1026.0
20260509121518 52 6 1.7 2.6 0.00 0.00 0.00 90 1026.0
20260509120527 52 0.0 0.9 0.00 0.00 0.00 89 1025.9
20260509115524 53 353 1.7 2.6 0.00 0.00 0.00 88 1026.0
20260509114526 53 79 0.0 0.9 0.00 0.00 0.00 88 1025.9
20260509113535 52 151 0.0 0.9 0.00 0.00 0.00 88 1026.0
20260509112531 52 0.0 0.0 0.00 0.00 0.00 88 1026.1
20260509111535 54 205 2.6 4.3 0.00 0.00 0.00 83 1025.9
20260509110523 55 0.0 0.9 0.00 0.00 0.00 82 1025.7
20260509105533 55 0.0 0.0 0.00 0.00 0.00 83 1025.7
20260509104522 55 0.0 0.9 0.00 0.00 0.00 83 1025.7
20260509103538 55 0.0 0.0 0.00 0.00 0.00 83 1025.5
20260509102519 55 0.0 0.0 0.00 0.00 0.00 82 1025.5
20260509101528 55 0.0 0.9 0.00 0.00 0.00 81 1025.4
20260509100518 55 30 0.0 0.9 0.00 0.00 0.00 84 1025.3
20260509095527 54 0.0 0.0 0.00 0.00 0.00 84 1025.3
20260509094537 55 0.0 0.0 0.00 0.00 0.00 82 1025.2
20260509093525 56 215 0.0 0.9 0.00 0.00 0.00 81 1025.1
20260509092536 56 0.0 0.0 0.00 0.00 0.00 81 1025.0
20260509091524 56 145 0.0 0.9 0.00 0.00 0.00 79 1025.1
20260509090533 57 0.0 0.9 0.00 0.00 0.00 78 1025.0
20260509085522 57 9 0.0 0.9 0.00 0.00 0.00 77 1024.9
20260509084539 57 0.0 0.9 0.00 0.00 0.00 76 1024.8
20260509083521 58 7 0.0 1.7 0.00 0.00 0.00 75 1024.7
20260509082532 58 0.0 0.9 0.00 0.00 0.00 74 1024.4
20260509081520 59 98 0.0 1.7 0.00 0.00 0.00 73 1024.3
20260509080529 59 26 0.0 2.6 0.00 0.00 0.00 72 1024.1
20260509075518 59 317 0.0 1.7 0.00 0.00 0.00 71 1023.9
20260509074527 60 353 0.9 1.7 0.00 0.00 0.00 69 1024.0
20260509073544 60 356 0.0 1.7 0.00 0.00 0.00 68 1023.9
20260509072525 61 0.0 0.9 0.00 0.00 0.00 67 1023.8
20260509071536 62 342 0.0 1.7 0.00 0.00 0.00 65 1023.6
20260509070524 63 334 0.9 3.5 0.00 0.00 0.00 64 1023.4
20260509065554 63 325 1.7 4.3 0.00 0.00 0.00 62 1023.3
20260509064522 64 325 1.7 3.5 0.00 0.00 0.00 61 1023.2
20260509063532 64 335 1.7 2.6 0.00 0.00 0.00 60 1023.3
20260509062520 64 331 2.6 4.3 0.00 0.00 0.00 60 1023.2
20260509061536 64 311 2.6 5.2 0.00 0.00 0.00 59 1023.1
20260509060519 65 320 3.5 5.2 0.00 0.00 0.00 59 1023.1
20260509055528 65 317 2.6 5.2 0.00 0.00 0.00 58 1023.0
20260509054536 64 298 4.3 7.0 0.00 0.00 0.00 58 1023.0
20260509053525 64 330 2.6 5.2 0.00 0.00 0.00 58 1023.0
20260509052542 65 257 2.6 5.2 0.00 0.00 0.00 56 1023.0
20260509051523 65 297 3.5 5.2 0.00 0.00 0.00 56 1023.0
20260509050540 64 161 0.9 2.6 0.00 0.00 0.00 56 1022.8
20260509045522 64 61 1.7 4.3 0.00 0.00 0.00 56 1022.8
20260509044532 64 305 2.6 3.5 0.00 0.00 0.00 56 1022.9
20260509043521 63 14 1.7 4.3 0.00 0.00 0.00 59 1023.0
20260509042530 64 65 2.6 6.1 0.00 0.00 0.00 58 1023.0
20260509041520 63 10 1.7 5.2 0.00 0.00 0.00 60 1023.1
20260509040529 63 292 3.5 7.0 0.00 0.00 0.00 60 1023.0
20260509035519 62 240 1.7 4.3 0.00 0.00 0.00 61 1023.2
20260509034527 63 10 2.6 5.2 0.00 0.00 0.00 61 1023.0
20260509033516 63 334 3.5 7.0 0.00 0.00 0.00 61 1023.1
20260509032525 63 348 2.6 7.8 0.00 0.00 0.00 62 1023.1
20260509031536 62 322 2.6 5.2 0.00 0.00 0.00 63 1023.2
20260509030525 62 292 2.6 7.0 0.00 0.00 0.00 63 1023.4
20260509025533 62 319 3.5 7.0 0.00 0.00 0.00 62 1023.4
20260509024522 61 348 2.6 7.0 0.00 0.00 0.00 62 1023.6
20260509023533 61 305 3.5 7.8 0.00 0.00 0.00 62 1023.7
20260509022522 61 327 4.3 8.7 0.00 0.00 0.00 61 1023.8
20260509021531 59 276 2.6 5.2 0.00 0.00 0.00 64 1024.0
20260509020520 59 270 2.6 6.1 0.00 0.00 0.00 64 1024.3
20260509015529 59 323 2.6 7.0 0.00 0.00 0.00 65 1024.3
20260509014518 59 108 2.6 3.5 0.00 0.00 0.00 64 1024.4
20260509013528 59 341 2.6 5.2 0.00 0.00 0.00 63 1024.5
20260509012517 58 315 2.6 3.5 0.00 0.00 0.00 67 1024.6
20260509011534 58 74 1.7 3.5 0.00 0.00 0.00 67 1024.6
20260509010542 55 297 1.7 4.3 0.00 0.00 0.00 73 1024.8
20260509005525 55 67 2.6 5.2 0.00 0.00 0.00 73 1024.8
20260509004534 54 336 2.6 5.2 0.00 0.00 0.00 78 1025.0
20260509003529 53 305 1.7 3.5 0.00 0.00 0.00 81 1025.0
20260509002531 52 298 1.7 4.3 0.00 0.00 0.00 83 1025.1
20260509001520 51 63 1.7 4.3 0.00 0.00 0.00 86 1025.1
20260509000530 51 61 1.7 3.5 0.00 0.00 0.00 90 1025.1
20260508235519 49 183 1.7 2.6 0.00 0.00 0.00 91 1025.4
20260508234529 49 54 1.7 3.5 0.00 0.00 0.00 93 1025.3
20260508233517 49 57 1.7 4.3 0.00 0.00 0.00 94 1025.2
20260508232527 50 68 2.6 5.2 0.00 0.00 0.00 92 1025.3
20260508231536 49 106 1.7 4.3 0.00 0.00 0.00 93 1025.4
20260508230525 49 117 2.6 5.2 0.00 0.00 0.00 95 1025.2
20260508225534 48 83 2.6 4.3 0.00 0.00 0.00 96 1025.2
20260508224538 47 67 2.6 3.5 0.00 0.00 0.00 97 1025.2
20260508222522 46 59 3.5 5.2 0.00 0.00 0.00 97 1025.0
20260508221531 46 81 1.7 4.3 0.00 0.00 0.00 97 1024.9
20260508220520 45 104 1.7 2.6 0.00 0.00 0.00 96 1024.8
20260508215543 44 96 0.9 2.6 0.00 0.00 0.00 96 1024.6
20260508214518 43 353 0.0 1.7 0.00 0.00 0.00 96 1024.7
20260508213528 43 349 0.9 1.7 0.00 0.00 0.00 97 1024.5
20260508212517 44 333 0.9 1.7 0.00 0.00 0.00 97 1024.3
20260508211526 45 210 0.9 1.7 0.00 0.00 0.00 97 1024.3
20260508210535 46 204 0.0 1.7 0.00 0.00 0.00 95 1024.0
20260508205526 45 177 0.9 1.7 0.00 0.00 0.00 96 1023.9
20260508204534 45 195 2.6 4.3 0.00 0.00 0.00 96 1023.6
20260508203523 45 139 1.7 3.5 0.00 0.00 0.00 96 1023.3
20260508202533 45 138 1.7 2.6 0.00 0.00 0.00 96 1023.3
20260508201522 45 154 1.7 3.5 0.00 0.00 0.00 96 1023.1
20260508200531 45 57 0.9 2.6 0.00 0.00 0.00 96 1023.0
20260508195520 45 48 0.9 2.6 0.00 0.00 0.00 96 1022.8
20260508194531 46 352 0.9 1.7 0.00 0.00 0.00 96 1022.8
20260508193518 46 164 0.9 1.7 0.00 0.00 0.00 96 1022.5
20260508192528 47 164 0.0 1.7 0.00 0.00 0.00 96 1022.3
20260508191518 47 318 0.0 1.7 0.00 0.00 0.00 95 1022.4
20260508190526 47 176 0.9 1.7 0.00 0.00 0.00 95 1022.3
20260508185536 47 325 0.9 2.6 0.00 0.00 0.00 95 1022.2
20260508184525 47 139 0.0 1.7 0.00 0.00 0.00 94 1022.2
20260508183534 47 155 0.9 1.7 0.00 0.00 0.00 95 1022.2
20260508182524 47 117 0.0 3.5 0.00 0.00 0.00 94 1022.1
20260508181533 47 109 0.9 2.6 0.00 0.00 0.00 94 1022.1
20260508180530 47 99 0.9 2.6 0.00 0.00 0.00 94 1022.0
20260508175531 48 322 0.9 2.6 0.00 0.00 0.00 94 1022.1
20260508174521 48 144 0.9 2.6 0.00 0.00 0.00 93 1022.0
20260508173531 49 309 1.7 3.5 0.00 0.00 0.00 93 1022.1
20260508172518 49 144 2.6 4.3 0.00 0.00 0.00 93 1021.9
20260508171529 49 229 1.7 3.5 0.00 0.00 0.00 93 1021.9
20260508170517 49 325 0.9 1.7 0.00 0.00 0.00 92 1022.1
20260508165526 50 128 0.9 2.6 0.00 0.00 0.00 91 1022.0
20260508164535 50 351 1.7 4.3 0.00 0.00 0.00 92 1021.8
20260508163532 50 341 1.7 3.5 0.00 0.00 0.00 91 1021.9
20260508162535 51 68 1.7 2.6 0.00 0.00 0.00 90 1021.9
20260508161538 51 67 0.9 1.7 0.00 0.00 0.00 89 1021.9
20260508160534 52 54 1.7 4.3 0.00 0.00 0.00 88 1021.8
20260508155521 52 25 0.9 2.6 0.00 0.00 0.00 87 1021.8
20260508154531 52 91 1.7 2.6 0.00 0.00 0.00 87 1021.8
20260508153520 52 62 0.9 1.7 0.00 0.00 0.00 86 1021.7
20260508152530 53 14 0.9 1.7 0.00 0.00 0.00 86 1021.8
20260508151518 53 61 0.9 1.7 0.00 0.00 0.00 85 1021.7
20260508150529 53 143 0.9 1.7 0.00 0.00 0.00 84 1021.7
20260508145524 53 149 0.9 1.7 0.00 0.00 0.00 84 1021.8
20260508144526 54 72 0.9 1.7 0.00 0.00 0.00 83 1021.8
20260508143536 54 131 0.9 1.7 0.00 0.00 0.00 82 1021.8
20260508142525 55 100 0.0 1.7 0.00 0.00 0.00 80 1021.6
20260508141535 54 202 1.7 2.6 0.00 0.00 0.00 80 1021.6
20260508140523 54 205 1.7 3.5 0.00 0.00 0.00 81 1021.6